YAOGAN 16B

Satellite information

Favourite Embed

Satellite Type and Status

PAYLOADIN ORBIT

Key statistics

Satellite YAOGAN 16B at a glance.

Uptime

4766

Days in orbit

Revolutions

≈ 13.5

Per day

Orbit

LEO

Low Earth Orbit

Inclination

63.4

Latest

Satellite identification and parameters

Extended collection of information and parameters for YAOGAN 16B.

Object identification

Identified? True

Debris? False

Object name: YAOGAN 16B

International designator: 2012-066B

Object number (NORAD): 39012

Object ID (CCSDS): 39012

Country: PEOPLES REPUBLIC OF CHINA (PRC)

Current information (Y/N): Y

RCS size: LARGE

Orbital parameters

Period: 107.025 minutes

Inclination: 63.3574 deg

SMA: 7467.057 km

Apoapsis: 1402.772 km

Periapsis: 775.071 km

RAAN: 52.7199 deg

Eccentricy: 0.04203138

Argument of periapsis: 25.3595 deg

Mean anomaly: 336.7424 deg

Mean motion: 13.45484206 rev/day

Mean motion (dot): -0.00000027 rev/day2

B* drag term: 0.000063590211 1/REarth

Two-line elements (TLE)

Creation date: Dec. 12, 2025, 10:14 a.m.

Reference frame: TEME

Reference center: EARTH

Epoch: Dec. 12, 2025, 6:22 a.m. UTC

TLE line 0: 0 YAOGAN 16B

TLE line 1: 1 39012U 12066B 25346.26575547 -.00000027 00000-0 63590-4 0 9998

TLE line 2: 2 39012 63.3574 52.7199 0420314 25.3595 336.7424 13.45484206640951

Live tracking on map

Real-time ground track for satellite YAOGAN 16B.

In-orbit conjunctions

There are no conjunctions computed for YAOGAN 16B, at the moment. Check back to stay up to date, as we update our databases every day.

Go to all conjunctions

Associated space launch

YAOGAN 16B was lifted into orbit during the mission ‘Long March 4C | Yaogan 16A, Yaogan 16B, Yaogan 16C’, on board a Long March 4C space rocket.

The launch took place on Nov. 25, 2012, 4:06 a.m. from Launch Area 94 (SLS-2 / 603).

For more information about the launch, click the button.

Launch to space Long March 4C | Yaogan 16A, Yaogan 16B, Yaogan 16C
Long March 4C | Yaogan 16A, Yaogan 16B, Yaogan 16C

Agency: N/A

Status: Launch Successful

Launch date: Nov. 25, 2012, 4:06 a.m. UTC

Rocket: Long March 4C

Launch pad: Launch Area 94 (SLS-2 / 603)

Location: Jiuquan Satellite Launch Center, People's Republic of China

...

Latest news about this satellite

There are no fresh news available about this satellite. Check back as we update our databases every day.


Newsletter sign-up

Weekly statistics, charts and insights to help you stay on top of the space industry.